Total_Precipitation_Accumulation
2.07 2.18 2.26 2.29 2.44 2.48 2.46 2.35 2.47 2.60 2.78 2.76 2.75 2.75 2.63 2.54 2.66 2.81 2.64 2.86 2.90 2.94 2.89 2.91 2.96 3.20 3.33 3.24 3.33 3.40 3.69 4.01 3.86 3.53 3.19 2.93 2.85 2.83 2.69 2.63 2.50 2.38 2.17
1.94 1.98 2.16 2.30 2.35 2.33 2.27 2.29 2.33 2.34 2.40 2.42 2.38 2.39 2.41 2.59 2.77 2.70 2.64 2.72 2.78 2.67 2.73 2.90 2.74 2.98 3.16 3.07 3.19 3.22 3.43 3.82 3.94 4.02 3.88 3.54 3.28 3.12 3.05 2.82 2.35 2.13 2.17
2.07 2.09 2.26 2.24 2.14 2.19 2.41 2.50 2.41 2.37 2.37 2.34 2.34 2.31 2.31 2.54 2.71 2.63 2.67 2.76 2.77 2.62 2.74 2.76 2.61 2.79 2.85 2.94 3.01 3.06 3.28 3.55 3.90 3.81 3.77 3.69 3.52 3.23 3.34 2.98 2.63 2.57 2.12
2.15 2.28 2.39 2.26 2.24 2.31 2.46 2.57 2.54 2.45 2.46 2.55 2.58 2.48 2.48 2.37 2.37 2.53 2.69 2.67 2.63 2.53 2.57 2.51 2.40 2.42 2.52 2.79 2.86 2.99 3.24 3.49 3.71 3.63 3.63 3.74 3.82 3.79 3.77 3.42 3.20 2.96 2.56
2.16 2.29 2.37 2.40 2.42 2.47 2.48 2.56 2.57 2.48 2.46 2.70 2.72 2.67 2.63 2.43 2.23 2.38 2.52 2.40 2.41 2.37 2.36 2.21 2.05 2.14 2.31 2.43 2.31 2.71 3.13 3.28 3.33 3.38 3.44 3.64 3.77 4.03 3.77 3.60 3.50 3.45 3.12
1.98 2.12 2.20 2.34 2.50 2.52 2.50 2.55 2.55 2.59 2.65 2.70 2.62 2.59 2.47 2.11 2.20 2.15 2.09 2.13 2.19 2.21 2.25 2.23 2.11 2.02 1.99 2.04 2.02 2.23 2.62 2.80 2.99 3.27 3.37 3.54 3.60 3.58 3.75 3.72 3.68 3.55 3.23
1.89 2.01 2.13 2.27 2.40 2.44 2.39 2.52 2.61 2.57 2.53 2.45 2.41 2.41 2.33 2.24 2.09 1.80 1.73 1.88 2.08 2.17 2.23 2.28 1.99 1.83 1.92 1.80 1.90 1.99 2.04 2.13 2.33 2.76 3.04 3.10 3.18 3.19 3.49 3.54 3.55 3.42 3.31
1.91 2.05 2.14 2.30 2.33 2.36 2.37 2.31 2.33 2.35 2.34 2.32 2.20 2.20 2.29 2.18 2.12 1.84 1.72 1.69 1.89 1.93 1.92 1.97 2.03 2.01 1.92 2.00 1.99 1.94 1.79 1.81 1.95 1.96 2.12 2.37 2.66 2.95 3.15 3.31 3.61 3.57 3.49
1.93 2.10 2.23 2.30 2.29 2.30 2.32 2.25 2.27 2.30 2.25 2.26 2.23 2.25 2.26 2.19 2.16 1.94 1.90 1.82 1.90 1.87 1.89 1.93 2.03 2.08 2.16 2.10 2.06 2.06 1.98 1.90 1.84 1.83 1.77 1.88 2.07 2.25 2.47 2.77 3.13 3.46 3.60
1.99 2.11 2.19 2.25 2.34 2.27 2.37 2.46 2.46 2.38 2.33 2.37 2.37 2.33 2.19 2.14 2.07 1.89 1.92 1.89 2.09 2.16 2.22 2.18 2.08 1.93 1.97 1.92 1.90 1.98 1.94 1.89 1.81 1.77 1.70 1.65 1.63 1.79 2.04 2.26 2.60 3.03 3.27
2.03 2.15 2.22 2.29 2.37 2.34 2.42 2.50 2.54 2.50 2.54 2.45 2.29 2.28 2.27 2.16 1.97 1.70 1.67 1.64 1.89 2.16 2.18 2.08 1.96 1.80 1.64 1.61 1.58 1.66 1.77 1.76 1.81 1.86 1.90 1.87 1.86 1.87 1.93 2.05 2.39 2.70 2.87
2.14 2.14 2.24 2.38 2.20 2.19 2.45 2.56 2.61 2.64 2.59 2.48 2.36 2.25 2.26 2.22 1.94 1.74 1.68 1.63 1.76 2.01 2.22 2.18 2.04 1.86 1.64 1.55 1.38 1.43 1.53 1.53 1.62 1.83 1.89 1.86 1.86 1.87 1.97 2.12 2.35 2.56 2.74
2.21 2.27 2.32 2.36 2.44 2.49 2.54 2.62 2.60 2.54 2.49 2.46 2.43 2.32 2.30 2.33 2.24 1.94 1.78 1.77 1.86 1.90 2.03 2.22 2.10 1.78 1.54 1.44 1.40 1.32 1.25 1.27 1.44 1.58 1.64 1.71 1.77 1.89 2.06 2.25 2.49 2.66 2.71
2.36 2.48 2.49 2.44 2.49 2.65 2.79 2.76 2.66 2.51 2.57 2.60 2.46 2.40 2.40 2.42 2.27 2.06 1.90 1.80 1.83 1.81 1.83 1.85 1.82 1.68 1.49 1.45 1.49 1.37 1.25 1.33 1.42 1.44 1.52 1.66 1.77 1.87 2.01 2.14 2.36 2.61 2.74
2.62 2.64 2.67 2.67 2.72 2.81 2.77 2.71 2.69 2.63 2.57 2.60 2.54 2.50 2.46 2.36 2.22 2.12 1.98 1.91 1.89 1.85 1.79 1.79 1.74 1.74 1.60 1.53 1.62 1.65 1.64 1.68 1.64 1.57 1.62 1.66 1.72 1.78 1.86 2.00 2.22 2.39 2.51
2.93 2.79 2.82 2.88 2.91 2.85 2.85 2.67 2.52 2.41 2.33 2.21 2.22 2.21 2.08 2.04 1.98 1.89 1.87 1.89 1.87 1.90 1.78 1.80 1.91 1.90 1.86 1.86 1.89 1.88 1.87 1.82 1.82 1.87 1.87 1.84 1.86 1.88 1.88 1.96 2.11 2.25 2.32
3.06 3.04 2.93 2.88 2.84 2.81 2.89 2.93 2.84 2.62 2.49 2.28 2.13 2.03 1.97 1.92 1.82 1.74 1.77 1.88 1.93 1.95 1.83 1.91 2.06 2.07 2.06 2.05 1.99 1.96 2.02 1.98 1.99 1.99 1.99 2.00 2.04 2.07 2.07 2.11 2.20 2.30 2.27
2.90 2.90 2.85 2.83 2.77 2.78 2.91 3.00 2.94 2.87 2.76 2.54 2.30 2.16 1.95 1.77 1.67 1.67 1.77 1.78 1.73 1.73 1.78 2.00 2.20 2.22 2.23 2.20 2.12 2.05 2.06 2.06 2.02 1.99 2.00 2.01 2.08 2.15 2.18 2.20 2.23 2.28 2.28
2.82 2.80 2.74 2.73 2.82 2.92 2.96 3.03 2.96 2.91 2.86 2.73 2.48 2.28 2.12 1.84 1.69 1.67 1.67 1.60 1.72 1.85 1.94 2.07 2.13 2.16 2.19 2.15 2.08 2.03 2.07 2.06 2.04 2.08 2.10 2.10 2.09 2.18 2.18 2.17 2.20 2.29 2.22
2.89 2.92 2.87 2.72 2.68 2.79 2.90 2.87 2.88 2.88 2.79 2.69 2.59 2.40 2.18 2.00 1.86 1.82 1.74 1.75 1.87 1.93 1.96 1.97 1.96 1.95 1.99 2.05 2.11 2.17 2.22 2.19 2.18 2.14 2.05 2.02 2.03 2.11 2.15 2.21 2.24 2.22 2.17
2.61 2.58 2.55 2.44 2.42 2.44 2.62 2.70 2.77 2.87 2.75 2.60 2.52 2.46 2.25 1.97 1.97 1.95 1.92 1.88 1.89 1.92 1.93 1.94 1.92 1.88 1.85 1.93 2.02 2.07 2.14 2.19 2.15 2.07 2.04 2.05 2.04 2.11 2.13 2.13 2.10 2.03 2.00
2.42 2.42 2.31 2.21 2.24 2.33 2.45 2.54 2.65 2.76 2.73 2.66 2.54 2.43 2.34 2.05 1.97 1.91 1.85 1.81 1.81 1.84 1.86 1.94 1.94 1.91 1.87 1.93 1.97 1.99 1.99 1.99 2.00 1.99 1.99 1.97 1.97 2.02 2.03 2.03 2.05 2.03 1.99
2.52 2.45 2.40 2.36 2.29 2.38 2.37 2.42 2.58 2.61 2.60 2.63 2.52 2.33 2.21 2.20 2.13 2.02 1.93 1.83 1.78 1.77 1.77 1.81 1.84 1.80 1.75 1.75 1.78 1.79 1.76 1.74 1.72 1.74 1.84 1.89 1.90 1.94 1.96 1.95 1.98 2.02 1.99
2.54 2.56 2.44 2.32 2.23 2.20 2.27 2.42 2.50 2.42 2.30 2.30 2.26 2.14 2.14 2.16 2.12 2.05 1.94 1.84 1.79 1.75 1.70 1.66 1.55 1.49 1.47 1.50 1.55 1.56 1.52 1.52 1.52 1.58 1.66 1.75 1.78 1.80 1.83 1.91 1.99 2.02 1.99
2.39 2.50 2.52 2.41 2.27 2.16 2.13 2.16 2.14 2.11 2.04 2.00 2.00 2.00 2.01 1.96 1.91 1.84 1.79 1.77 1.70 1.61 1.51 1.46 1.41 1.39 1.37 1.37 1.38 1.39 1.50 1.52 1.51 1.47 1.48 1.58 1.64 1.68 1.68 1.74 1.83 1.91 1.89
2.22 2.29 2.30 2.22 2.09 1.98 1.96 1.97 1.93 1.86 1.83 1.76 1.70 1.69 1.64 1.66 1.65 1.55 1.48 1.51 1.53 1.52 1.43 1.38 1.37 1.36 1.36 1.34 1.35 1.42 1.42 1.33 1.34 1.39 1.30 1.30 1.46 1.55 1.55 1.51 1.49 1.60 1.63